Zurück zum Katalog

STARLINK-30539

AktivKommunikationVLEO
NORAD 58004·PAYLOAD·🇺🇸 United States

Gestartet Oct 5, 2023 von Cape Canaveral Space Force Station

Loading…

Nächste Überflüge (nächste 24 Stunden)

TLE

AktuellSource: CelesTrak SupGP

Epoche: Sep 14, 2026, 22:42 UTC

1 58004C 23153P   26257.94631944  .00060678  00000+0  21977-2 0  2574
2 58004  43.0024  77.9847 0001425 272.3058  88.3438 15.27549502    18

Verfolge STARLINK-30539 in Echtzeit mit AllMySat

Download on the App Store